Content
SEND FEEDBACK

Daily
Averages
Monthly
Summary
United States of America

ST. LOUIS - SAINT LOUIS UNIVERSITY, MISSOURI


Home > North America > United States > Missouri
Elevation: 580 feet     Latitude: 38 38N     Longitude: 090 14W

WEATHER
 
SELECT A DAY
Number of Records: 185,982;   Date Range: 1/1/95 - 7/22/14
 
SHARE

PRINT THIS DATA

[ ← Previous Day ]
WEATHER ALMANAC - JANUARY 14, 2013
[ Next Day → ]
[ °C ]   °F
Weather ElementAverageHighLow
Temperature21.5 °F27 °F (2:53 pm)18 °F (6:53 am)
Dewpoint13.9 °F16 °F (6:53 pm)12 °F (6:53 am)
Humidity73.2 %85 % (10:53 pm)58 % (2:53 pm)
Barometer30.46 in30.53 in (9:53 am)30.43 in (1:53 am)
Wind Speed4.7 mph8.1 mph (3:53 am)
Weather ElementAverage
Visibility10 mi
Wind DirectionESE (128.5 °)

Weather ElementTotal
Precipitation---
Heating Degree Days42.5 (Base 65)
Averaged from 20 records on January 14, 2013
WEATHER CONDITIONS BREAKOUT
WIND DIRECTION BREAKOUT
WEATHER BY HOUR - JANUARY 14, 2013
[ °C ]   °F
Local TimeTemperatureDewpointHumidityBarometerVisibilityWind DirectionWind SpeedGust SpeedPrecipitationEventsConditions
1:53 AM19.9 °F14.0 °F78 %30.43 in10.0 miWest (270°)3.5 mphClear
2:53 AM19.9 °F14.0 °F78 %30.45 in10.0 miNW (310°)5.8 mphClear
3:53 AM19.9 °F12.9 °F74 %30.44 in10.0 miNW (320°)8.1 mphClear
4:53 AM19.0 °F12.9 °F77 %30.44 in10.0 miNNW (340°)8.1 mphClear
5:53 AM19.0 °F12.9 °F77 %30.45 in10.0 miNorth (360°)6.9 mphClear
6:53 AM18.0 °F12.0 °F78 %30.44 in10.0 miCalmClear
7:53 AM19.0 °F12.9 °F77 %30.46 in10.0 miNE (40°)3.5 mphClear
8:53 AM21.0 °F12.0 °F68 %30.51 in10.0 miNNE (30°)5.8 mphClear
9:53 AM21.9 °F12.0 °F66 %30.53 in10.0 miNNE (30°)3.5 mphClear
10:53 AM24.1 °F12.0 °F60 %30.49 in10.0 miNNE (30°)5.8 mphClear
11:53 AM23.0 °F12.0 °F63 %30.49 in10.0 miCalmMostly Cloudy
2:53 PM27.0 °F14.0 °F58 %30.47 in10.0 miNorth (360°)6.9 mphPartly Cloudy
4:53 PM26.1 °F15.1 °F63 %30.46 in10.0 miNNE (30°)5.8 mphClear
5:53 PM24.1 °F15.1 °F69 %30.45 in10.0 miNNE (20°)5.8 mphClear
6:53 PM23.0 °F16.0 °F74 %30.45 in10.0 miNorth (360°)4.6 mphClear
7:53 PM21.9 °F16.0 °F78 %30.44 in10.0 miNorth (10°)5.8 mphClear
8:53 PM21.9 °F16.0 °F78 %30.44 in10.0 miNorth (10°)4.6 mphClear
9:53 PM21.0 °F16.0 °F81 %30.43 in10.0 miNorth (10°)5.8 mphClear
10:53 PM19.9 °F16.0 °F85 %30.44 in10.0 miCalmClear
11:53 PM19.9 °F15.1 °F81 %30.45 in10.0 miNE (40°)4.6 mphClear
Hourly data recorded from KCPS, located miles away from St. Louis - Saint Louis University, Missouri







STORIES FROM OUR PARTNERS